ARIANE 5 R/B, 39218

Orbit data source: Space-Track

ARIANE 5 R/B, 39218 is space debris in HEO originally from a launch on Thu, 25 Jul 2013 UTC launched from the French Guiana (FRGUI). Debris objects in space refer to the collection of defunct objects orbiting the Earth. Examples of debris include non-operational satellites, rocket bodies, and fragments generated from explosions, collisions, or faulty payload assembly.

Loading next visibility...
Identifier
39218, 2013-038D
Orbit
HEO
Country
Flag of FRFR
Related business
Manufacturer
EADS/Bremen
Mission
Spacecraft
Bus & Motor
SYLDA 5, Unknown motor
Mass
440 kg wet, 440 kg dry
Launch date (UTC)
2013-07-25 (13 years ago)
Launch vehicle
Unknown
Launch site
French Guiana (FRGUI)
Object type
Payload
Rocket body
Debris
Shape & HBR
Cyl, 2.9 m
Radar Cross Section
28.451 m², Large (>1 m²)

Expand to show TLE details & history
Last TLE update: 16 hours ago

TLE from 16 hours ago
0 ARIANE 5 R/B
1 39218U 13038D   26034.41914998  .00011398  00000-0  11167-2 0  9998
2 39218   3.2050 293.9356 6606655  70.9390 346.2797  3.19776995120898
Epoch: 2026-02-03T10:03Z
TLE epoch observation values (Epoch: 2026-02-03T10:03:34.558Z)
Latitude
0.00001°
Longitude
9.56845°
Altitude
2,627.681 km
Speed
8.248 km/s
True Right ascension
19h 36m 15s
True Declination
0° 00' 00"
Sunlit
Object was in daylight at epoch
Visualization orbit readout
Latitude
Unknown
Longitude
Unknown
Altitude
Unknown
Speed
Unknown
Apparent Right ascension
Unknown
Apparent Declination
Unknown
Sunlit
N/A
Visualization observer readout
Local Sidereal Time
04:11:14
Azimuth
Unknown
Elevation
Unknown
Doppler factor
Unknown
Orbital elements
Apogee altitude
25,949.326 km
Perigee altitude
227.542 km
Semi-major axis
19,466.571 km
Eccentricity
0.66067
Inclination
3.205°
RAAN
293.9356°
Arg. of periapsis
70.939°
True anomaly
288.6877°
Mean anomaly
346.2797°
Eccentric anomaly
324.06461°
Mean motion
0.79911 °/min
Orbital period
450.5 mins
BSTAR
0.0011167
Loading maneuver chart data...
Computing Atmospheric mass density...
Loading historical data...
Loading historical data...
Loading historical data...
Loading historical data...
Loading historical data...
Loading historical data...
Loading historical data...
Other satellites on launch #38 in the year 2013 (2013-07-25 UTC)

Documentation

Showing up to 5 results
|